[[{"header":{"parameterUnit":"m.s-1","parameterCategory":1,"la1":30.2991,"la2":30.254,"lo1":-89.0895,"lo2":-89.0444,"dy":0.0017,"dx":0.0017,"nx":28,"ny":28,"refTime":"2023-09-27T03:00:00:Z","depth":0,"parameterNumber":2,"parameterNumberName":"U-component_of_WINDS"},"data":[0,0,0,0,0,0,0,0,0,0,0,0,0,0,0,0,0,0,0,0,0,0,0,0,0,0,0,0,0,0,0,0,0,0,0,0,0,0,0,0,0,0,0,0,0,0,0,0,0,0,0,0,0,0,0,0,0,0,1.7543,1.7543,0,1.7538,1.7538,1.7538,1.7342,1.7337,1.7332,1.7327,1.7326,1.7331,1.7335,0,0,0,0,0,0,0,0,0,0,0,0,0,1.739,1.7394,1.7543,1.7543,1.7543,1.7538,1.7538,1.7538,1.7343,1.7337,1.7331,1.7325,1.7325,1.733,1.7336,0,0,0,0,0,0,0,0,0,0,0,0,0,1.7428,1.7395,1.7543,1.7445,1.7436,1.7538,1.7538,1.7538,1.7344,1.7337,1.7329,1.7322,1.7323,1.733,1.7337,1.7533,0,0,1.7358,1.7361,0,0,0,0,0,0,0,0,1.7426,1.7434,1.746,1.7452,1.7442,1.7433,1.7483,1.7536,1.7346,1.738,1.7327,1.7318,1.7368,1.7371,1.7387,1.7533,1.7533,1.7359,1.7363,1.7366,1.7368,0,0,0,0,0,0,0,1.7424,1.7433,1.7541,1.746,1.745,1.7403,1.74,1.7493,1.7417,1.7376,1.7362,1.7364,1.7362,1.7381,1.7385,1.7533,1.7359,1.7365,1.7369,1.7372,1.7843,1.7851,0,0,0,0,0,0,1.7434,1.7432,1.7541,1.7541,1.7415,1.7412,1.7409,1.7444,1.7415,1.7403,1.737,1.7355,1.7372,1.7377,1.7385,1.7615,1.7366,1.7373,1.7377,1.7835,1.7845,1.7854,0,0,0,0,0,0,1.7432,1.7446,1.7542,1.7483,1.7491,1.7423,1.7464,1.7448,1.7466,1.7411,1.7397,1.7403,1.7366,1.7375,1.7498,1.7612,1.7376,1.7382,1.7825,1.7838,1.785,1.8076,0,0,0,0,0,0,1.7428,1.7446,1.7518,1.7486,1.7495,1.7654,1.7471,1.7453,1.7478,1.7458,1.7438,1.7427,1.7361,1.7489,1.7505,1.7618,1.7388,1.7815,1.7831,1.7846,1.8058,1.8095,1.8126,0,0,0,0,0,1.7423,1.7582,1.7523,1.7537,1.7584,1.7661,1.7666,1.7586,1.7488,1.7562,1.7527,1.7428,1.7597,1.7503,1.752,1.7636,1.7807,1.7826,1.7845,1.8043,1.8088,1.8125,0,0,0,0,0,0,1.7631,1.7576,1.751,1.7663,1.7668,1.7628,1.7717,1.7636,1.7669,1.7649,1.7549,1.7546,1.7687,1.7673,1.7569,1.7826,1.7685,1.7708,1.783,1.7872,1.7905,1.7906,1.7394,0,0,0,0,0,1.7694,1.7759,1.7709,1.7849,1.7855,1.7787,1.7817,1.7755,1.7757,1.7758,1.7732,1.7739,1.7793,1.7832,1.7879,1.8055,1.805,1.8144,1.8178,1.8206,1.8227,1.8323,1.8365,1.7915,1.7915,1.7915,0,0,1.7826,1.7804,1.7852,1.789,1.7887,1.7959,1.779,1.7872,1.7925,1.7771,1.7886,1.7868,1.7869,1.8021,1.8086,1.8014,1.835,1.823,1.8253,1.8259,1.8346,1.8389,1.8427,1.7928,1.7926,1.7924,0,0,1.8103,1.8093,1.8209,1.821,1.8207,1.8161,1.819,1.8163,1.8144,1.8258,1.8145,1.8207,1.8303,1.8309,1.8325,1.8609,1.8521,1.8628,1.8805,1.89,1.8935,1.8966,1.907,1.9108,1.8649,1.8649,1.865,0,1.8268,1.837,1.828,1.8371,1.8393,1.8256,1.8376,1.8381,1.8395,1.8414,1.8332,1.8451,1.8442,1.8595,1.8665,1.8681,1.8713,1.863,1.8937,1.8967,1.8995,1.9092,1.9131,1.8663,1.8661,1.866,1.8658,0,1.8575,1.8648,1.8743,1.8759,1.8792,1.8897,1.8825,1.8869,1.8805,1.8769,1.8888,1.8873,1.8916,1.8947,1.8885,1.9093,1.9048,1.8954,1.881,1.9052,1.9142,1.9179,1.8681,1.8677,1.8673,1.867,0,0,1.8981,1.8948,1.8985,1.8992,1.898,1.9036,1.9137,1.9178,1.9219,1.9234,1.9317,1.9402,1.9315,1.9334,1.9272,1.9355,1.9584,1.925,1.9248,1.9314,1.9815,1.9887,1.9931,1.9525,1.9531,1.9537,1.9815,0,1.9251,1.9419,1.9342,1.952,1.9588,1.9461,1.9548,1.9552,1.9522,1.9577,1.9543,1.9606,1.9485,1.9496,1.9572,1.954,1.9683,1.9519,1.9603,1.9608,1.9608,1.9978,2.0054,2.0317,1.985,1.9855,1.986,0,1.9588,1.9617,1.9802,1.978,1.9806,1.9886,1.992,1.9973,1.9976,1.9948,1.9971,1.9891,1.999,1.9847,1.9984,1.9874,1.9904,1.9894,1.9902,1.9908,1.9749,1.9996,2.0399,2.0439,1.9914,1.991,1.9906,0,1.9869,1.9954,2.0076,2.0086,2.0064,2.0124,2.0117,2.0112,2.0144,2.0173,2.0193,2.0235,2.0258,2.0293,2.0228,2.0129,2.0375,2.0226,2.0357,2.0359,2.0415,2.0412,2.083,2.0433,2.0432,2.0432,2.0431,0,2.0179,2.0297,2.0202,2.0278,2.0408,2.032,2.0451,2.0431,2.0429,2.05,2.0392,2.0461,2.037,2.0431,2.0381,2.0503,2.0514,2.0496,2.0482,2.0506,2.0509,2.0525,2.0506,2.0442,2.044,2.0438,2.0436,0,2.0514,2.0455,2.058,2.055,2.0545,2.0643,2.0617,2.0687,2.0649,2.0741,2.0757,2.0699,2.0766,2.0704,2.0767,2.0733,2.0898,2.0856,2.0897,2.0886,2.1021,2.101,2.1465,2.1521,2.1087,2.1092,2.1095,0,2.0716,2.0805,2.0784,2.0824,2.0824,2.0889,2.092,2.0839,2.0876,2.0888,2.0958,2.1015,2.1056,2.1169,2.1134,2.1183,2.1142,2.1298,2.1149,2.1172,2.1146,2.1143,2.1152,2.1329,2.1334,2.1339,2.1342,0,2.1083,2.105,2.1098,2.1139,2.1179,2.1207,2.1226,2.1265,2.1182,2.123,2.1296,2.1329,2.1394,2.1454,2.1492,2.1486,2.1403,2.139,2.1423,2.1449,2.147,2.1462,2.0981,2.1379,2.1376,2.1373,2.1371,2.1369,2.1358,2.1432,2.143,2.1489,2.1495,2.1517,2.1581,2.1553,2.1607,2.1653,2.1602,2.1685,2.1688,2.173,2.1736,2.1801,2.1735,2.1783,2.1795,2.1808,2.1829,2.146,2.1807,2.1806,2.1805,2.1804,2.1803,0,2.172,2.1713,2.1768,2.1799,2.1847,2.1762,2.178,2.1826,2.19,2.191,2.1954,2.2032,2.209,2.206,2.2111,2.2168,2.2131,2.2185,2.218,2.2181,2.1884,2.1851,2.2214,2.2214,2.2214,2.2214,2.2214,2.2214,2.1913,2.2034,2.2002,2.2127,2.2118,2.2198,2.2216,2.2237,2.2244,2.2337,2.2384,2.2364,2.236,2.2409,2.246,2.2449,2.2474,2.2542,2.2519,2.2242,2.2201,2.2163,2.2131,2.2548,2.2548,2.281,2.2812,2.2814]},{"header":{"parameterUnit":"m.s-1","parameterCategory":1,"la1":30.2991,"la2":30.254,"lo1":-89.0895,"lo2":-89.0444,"dy":0.0017,"dx":0.0017,"nx":28,"ny":28,"refTime":"2023-09-27T03:00:00:Z","depth":0,"parameterNumber":3,"parameterNumberName":"V-component_of_WINDS"},"data":[0,0,0,0,0,0,0,0,0,0,0,0,0,0,0,0,0,0,0,0,0,0,0,0,0,0,0,0,0,0,0,0,0,0,0,0,0,0,0,0,0,0,0,0,0,0,0,0,0,0,0,0,0,0,0,0,0,0,-0.2995,-0.2994,0,-0.2889,-0.2887,-0.2886,-0.2963,-0.2967,-0.297,-0.2973,-0.2852,-0.2845,-0.2839,0,0,0,0,0,0,0,0,0,0,0,0,0,-0.3254,-0.3249,-0.2995,-0.2994,-0.2993,-0.2889,-0.2887,-0.2886,-0.2963,-0.2967,-0.2971,-0.2975,-0.2854,-0.2846,-0.2838,0,0,0,0,0,0,0,0,0,0,0,0,0,-0.3144,-0.3247,-0.2995,-0.3019,-0.302,-0.2889,-0.2887,-0.2885,-0.2962,-0.2967,-0.2972,-0.2977,-0.2856,-0.2847,-0.2837,-0.2674,0,0,-0.2808,-0.2804,0,0,0,0,0,0,0,0,-0.315,-0.3134,-0.3017,-0.3017,-0.3018,-0.2945,-0.2934,-0.2814,-0.296,-0.2983,-0.2974,-0.298,-0.2878,-0.2867,-0.2835,-0.2668,-0.2663,-0.2807,-0.2801,-0.2797,-0.2794,0,0,0,0,0,0,0,-0.3157,-0.3139,-0.2953,-0.3015,-0.3015,-0.3031,-0.3021,-0.2912,-0.2902,-0.2982,-0.2987,-0.2974,-0.2879,-0.2844,-0.2832,-0.2661,-0.2807,-0.2799,-0.2793,-0.2789,-0.2355,-0.2349,0,0,0,0,0,0,-0.3165,-0.3145,-0.2956,-0.295,-0.3098,-0.3022,-0.3011,-0.2963,-0.2904,-0.29,-0.297,-0.2978,-0.2858,-0.2844,-0.2828,-0.2633,-0.2797,-0.2788,-0.2782,-0.236,-0.2354,-0.2347,0,0,0,0,0,0,-0.317,-0.3147,-0.296,-0.3049,-0.3026,-0.3012,-0.2957,-0.2958,-0.2923,-0.2895,-0.2893,-0.2937,-0.2861,-0.2842,-0.2713,-0.263,-0.2784,-0.2775,-0.2367,-0.2358,-0.235,-0.2241,0,0,0,0,0,0,-0.3177,-0.3148,-0.3089,-0.3047,-0.3021,-0.2849,-0.2952,-0.2952,-0.2908,-0.2918,-0.2863,-0.2859,-0.2864,-0.2727,-0.2703,-0.2619,-0.2767,-0.2375,-0.2363,-0.2353,-0.2252,-0.223,-0.2211,0,0,0,0,0,-0.3186,-0.3059,-0.3085,-0.3062,-0.2947,-0.2845,-0.2829,-0.2841,-0.2901,-0.2839,-0.2821,-0.2861,-0.2643,-0.2713,-0.2687,-0.2599,-0.238,-0.2366,-0.2354,-0.2261,-0.2234,-0.2211,0,0,0,0,0,0,-0.3087,-0.3054,-0.3083,-0.294,-0.2895,-0.2858,-0.278,-0.2812,-0.2746,-0.2758,-0.2772,-0.2759,-0.2623,-0.2598,-0.2676,-0.2437,-0.252,-0.2502,-0.2459,-0.2433,-0.2413,-0.242,-0.2759,0,0,0,0,0,-0.305,-0.2973,-0.2947,-0.2823,-0.28,-0.2794,-0.2749,-0.2763,-0.2715,-0.2695,-0.2668,-0.2617,-0.2537,-0.2484,-0.2409,-0.2249,-0.2237,-0.2176,-0.2155,-0.2139,-0.2121,-0.2034,-0.2006,-0.2305,-0.2305,-0.2305,0,0,-0.2969,-0.2942,-0.2892,-0.2803,-0.277,-0.2686,-0.2777,-0.2685,-0.2622,-0.268,-0.2557,-0.2535,-0.2479,-0.2334,-0.2268,-0.2308,-0.2037,-0.2122,-0.2109,-0.2101,-0.2018,-0.199,-0.1965,-0.2296,-0.2298,-0.2299,0,0,-0.2781,-0.2754,-0.2648,-0.2614,-0.2564,-0.2561,-0.2536,-0.2494,-0.2483,-0.2361,-0.2403,-0.2326,-0.2189,-0.2147,-0.2108,-0.1905,-0.1938,-0.188,-0.1771,-0.1686,-0.1663,-0.1642,-0.1568,-0.1541,-0.1863,-0.1863,-0.1863,0,-0.2687,-0.2567,-0.2588,-0.2494,-0.2452,-0.2506,-0.2396,-0.2361,-0.2287,-0.2255,-0.2303,-0.2133,-0.2098,-0.1944,-0.1895,-0.1861,-0.183,-0.1885,-0.1665,-0.1644,-0.1625,-0.1555,-0.1527,-0.1856,-0.1857,-0.1858,-0.1858,0,-0.2453,-0.2369,-0.2289,-0.2221,-0.217,-0.2069,-0.2071,-0.2016,-0.2035,-0.2026,-0.1899,-0.1861,-0.1779,-0.1744,-0.1758,-0.159,-0.1617,-0.1665,-0.1748,-0.159,-0.1524,-0.1497,-0.1846,-0.1849,-0.1851,-0.1853,0,0,-0.2197,-0.2145,-0.2115,-0.2085,-0.2035,-0.1968,-0.1868,-0.1792,-0.1744,-0.1692,-0.1606,-0.149,-0.1534,-0.1489,-0.15,-0.1425,-0.1265,-0.1482,-0.148,-0.1441,-0.1076,-0.104,-0.1008,-0.1289,-0.1283,-0.1279,-0.108,0,-0.2005,-0.1836,-0.1852,-0.1689,-0.1611,-0.1661,-0.1573,-0.1531,-0.152,-0.1448,-0.1435,-0.1352,-0.1417,-0.1391,-0.1319,-0.13,-0.1192,-0.1315,-0.1205,-0.1201,-0.1217,-0.0974,-0.0935,-0.0749,-0.1055,-0.1051,-0.1047,0,-0.1759,-0.1703,-0.1533,-0.1495,-0.1463,-0.1384,-0.1316,-0.1249,-0.1201,-0.1198,-0.1149,-0.1173,-0.1068,-0.1156,-0.1011,-0.1094,-0.105,-0.1034,-0.1027,-0.1015,-0.1113,-0.0954,-0.069,-0.0662,-0.1007,-0.101,-0.1013,0,-0.1588,-0.1469,-0.1353,-0.1325,-0.1279,-0.1222,-0.1199,-0.1157,-0.1111,-0.105,-0.1019,-0.0945,-0.0904,-0.0845,-0.0846,-0.0911,-0.0698,-0.0787,-0.069,-0.069,-0.0641,-0.0644,-0.0365,-0.0616,-0.0616,-0.0617,-0.0617,0,-0.1371,-0.1265,-0.1276,-0.1203,-0.1085,-0.1104,-0.0985,-0.0968,-0.093,-0.0853,-0.089,-0.0816,-0.0824,-0.0748,-0.0749,-0.0628,-0.0609,-0.0601,-0.0602,-0.0597,-0.0597,-0.0566,-0.0579,-0.0609,-0.0611,-0.0612,-0.0614,0,-0.116,-0.1163,-0.1039,-0.1006,-0.0995,-0.0909,-0.088,-0.0809,-0.0803,-0.0705,-0.0682,-0.067,-0.0583,-0.0581,-0.0479,-0.0479,-0.0331,-0.0347,-0.0348,-0.0351,-0.0254,-0.0263,0.0056,0.0098,-0.0182,-0.0179,-0.0177,0,-0.1021,-0.0941,-0.0901,-0.0854,-0.0829,-0.0752,-0.0707,-0.0721,-0.0671,-0.0611,-0.0547,-0.0465,-0.04,-0.0258,-0.0237,-0.016,-0.0173,-0.0067,-0.0161,-0.0158,-0.0169,-0.0174,-0.0165,-0.0047,-0.0044,-0.0042,-0.004,0,-0.0773,-0.0779,-0.0713,-0.0648,-0.0593,-0.0541,-0.0493,-0.0451,-0.046,-0.0401,-0.0315,-0.0265,-0.0164,-0.008,-0.0005,0.0022,-0.0008,-0.0011,0.0016,0.0023,0.002,0.0024,-0.0296,-0.0017,-0.0019,-0.0021,-0.0022,-0.0023,-0.0592,-0.0523,-0.0485,-0.041,-0.0377,-0.0331,-0.0265,-0.0251,-0.0181,-0.0103,-0.0115,-0.0018,0.0029,0.0125,0.0159,0.0237,0.0201,0.0239,0.0249,0.0259,0.027,0.0005,0.0251,0.025,0.0249,0.0249,0.0248,0,-0.0345,-0.0324,-0.0255,-0.0189,-0.013,-0.017,-0.0118,-0.0065,0.0019,0.0063,0.0127,0.0227,0.0307,0.0333,0.0412,0.0469,0.0457,0.0491,0.0487,0.0495,0.0297,0.0267,0.0499,0.0499,0.0499,0.0499,0.0499,0.0499,-0.021,-0.0096,-0.0097,0.0034,0.0056,0.0147,0.0179,0.0222,0.0257,0.0369,0.0434,0.0448,0.0486,0.0567,0.064,0.0645,0.0677,0.0717,0.0718,0.0533,0.0508,0.0484,0.0456,0.0724,0.0724,0.0908,0.091,0.0911]}]]